This is the latest recevied weather packets stored in our database for station/object Waldburg. If no packets are shown the sender has not sent any weather packets the latest 10 day(s).
| Time | Temp. | Humidity | Pressure | Rain* | Wind** | Luminosity | Snow |
|---|---|---|---|---|---|---|---|
| 1777822330 | 22.78° C | 40% | 1009.9 hPa | 0 mm | - | - | - |
| 1777820530 | 23.33° C | 37% | 1010.1 hPa | 0 mm | - | - | - |
| 1777818730 | 23.89° C | 35% | 1010.2 hPa | 0 mm | - | - | - |
| 1777816930 | 24.44° C | 34% | 1010.3 hPa | 0 mm | - | - | - |
| 1777815131 | 24.44° C | 33% | 1010.6 hPa | 0 mm | - | - | - |
| 1777813330 | 24.44° C | 35% | 1010.9 hPa | 0 mm | - | - | - |
| 1777811536 | 25° C | 34% | 1011.2 hPa | 0 mm | - | - | - |
| 1777809730 | 23.33° C | 36% | 1011.9 hPa | 0 mm | - | - | - |
| 1777807932 | 22.78° C | 37% | 1012 hPa | 0 mm | - | - | - |
| 1777806130 | 22.78° C | 39% | 1012.2 hPa | 0 mm | - | - | - |
| 1777804332 | 21.67° C | 37% | 1012.5 hPa | 0 mm | - | - | - |
| 1777802532 | 21.67° C | 44% | 1012.8 hPa | 0 mm | - | - | - |
| 1777800731 | 21.67° C | 46% | 1013.2 hPa | 0 mm | - | - | - |
| 1777798930 | 20.56° C | 46% | 1013.3 hPa | 0 mm | - | - | - |
| 1777797132 | 19.44° C | 48% | 1013.5 hPa | 0 mm | - | - | - |
| 1777795332 | 18.33° C | 48% | 1013.5 hPa | 0 mm | - | - | - |
| 1777793531 | 18.33° C | 48% | 1013.4 hPa | 0 mm | - | - | - |
| 1777791731 | 17.22° C | 48% | 1013.3 hPa | 0 mm | - | - | - |
| 1777789931 | 16.11° C | 48% | 1013.4 hPa | 0 mm | - | - | - |
| 1777788131 | 14.44° C | 55% | 1013.3 hPa | 0 mm | - | - | - |
| 1777786331 | 12.78° C | 59% | 1013.3 hPa | 0 mm | - | - | - |
| 1777784533 | 12.78° C | 61% | 1013.5 hPa | 0 mm | - | - | - |
| 1777782731 | 12.78° C | 62% | 1013.6 hPa | 0 mm | - | - | - |
| 1777780930 | 12.78° C | 63% | 1013.6 hPa | 0 mm | - | - | - |
| 1777779131 | 12.22° C | 65% | 1013.7 hPa | 0 mm | - | - | - |
* Rain since midnight (hover to see other rain measurements)
** Current wind speed in m/s (hover to see current wind gust speed)